DELTA 1 DEB, 14839

Orbit data source: Space-Track

DELTA 1 DEB, 14839 is space debris in LEO originally from a launch on Thu, 14 Jul 1977 UTC launched from the Air Force Eastern Test Range (AFETR). Debris objects in space refer to the collection of defunct objects orbiting the Earth. Examples of debris include non-operational satellites, rocket bodies, and fragments generated from explosions, collisions, or faulty payload assembly.

Loading next visibility...
Identifier
14839, 1977-065FU
Orbit
LEO
Country
Flag of USUS
Related business
Manufacturer
Unknown
Mission
Spacecraft
Bus & Motor
Unknown
Mass
Unknown
Launch date (UTC)
1977-07-14 (49 years ago)
Launch vehicle
Unknown
Launch site
Air Force Eastern Test Range (AFETR)
Object type
Payload
Rocket body
Debris
Shape & HBR
Unknown shape, 0.1 m
Radar Cross Section
Medium (>0.1 m² and <1 m²)

Expand to show TLE details & history
Last TLE update: 5 days ago

TLE from 5 days ago
0 DELTA 1 DEB
1 14839U 77065FU  26258.68748029  .00001196  00000-0  38856-2 0  9996
2 14839  28.9905  31.0056 0977634 166.1246 322.8643 11.92978669170618
Epoch: 2026-09-15T16:29Z
TLE epoch observation values (Epoch: 2026-09-15T16:29:58.297Z)
Latitude
24.50913°
Longitude
-86.07714°
Altitude
1,112.433 km
Speed
7.565 km/s
True Right ascension
10h 24m 15s
True Declination
24° 23' 09"
Sunlit
Object was in daylight at epoch
Visualization orbit readout
Latitude
Unknown
Longitude
Unknown
Altitude
Unknown
Speed
Unknown
Apparent Right ascension
Unknown
Apparent Declination
Unknown
Sunlit
N/A
Visualization observer readout
Local Sidereal Time
04:42:19
Azimuth
Unknown
Elevation
Unknown
Doppler factor
Unknown
Orbital elements
Apogee altitude
2,507.347 km
Perigee altitude
924.72 km
Semi-major axis
8,094.17 km
Eccentricity
0.09776
Inclination
28.9905°
RAAN
31.0056°
Arg. of periapsis
166.1246°
True anomaly
315.39608°
Mean anomaly
322.8643°
Eccentric anomaly
319.20455°
Mean motion
2.98047 °/min
Orbital period
120.79 mins
BSTAR
0.0038856
Loading maneuver chart data...
Computing Atmospheric mass density...

Documentation

Showing up to 5 results
|